Terminal Aerodrome Forecast
Issued by NWS State College, PA

Home | Current Version | Previous Version | Text Only | Print | Product List | Glossary On
Versions: 1 2 3 4 5 6 7 8 9 10 11 12 13 14 15 16 17 18 19 20 21 22 23 24 25 26 27 28 29 30 31 32 33 34 35 36 37 38 39 40 41 42 43 44 45 46 47 48 49 50
000
FTUS41 KCTP 010327 AAA
TAFIPT
TAF AMD
KIPT 010327Z 0103/0124 13004KT 6SM -SHRA VCTS BKN050CB
     FM010500 00000KT 3SM BR SCT050 BKN120
     FM010800 00000KT 3/4SM BR OVC004
     FM011330 11002KT 3SM BR OVC015
     FM011500 13006KT P6SM BKN060=

USA.gov is the U.S. government's official web portal to all federal, state and local government web resources and services.